ANGOSAT 2

Last updated on Fri Dec 19 2025 00:02:53 GMT+0000 (Coordinated Universal Time)

1 54033U 22131A 25352.70120220 .00000160 00000+0 00000+0 0 9990 2 54033 0.0211 74.3747 0000529 244.0060 44.6144 1.00270254 11663
UTC large
Height (km)
Speed (km/s)
/
Latitude / Longitude
Inclination (degrees)
Orbital Period (minutes)
Azimuth
Elevation
Range (km)
Doppler Factor

Next 0 passes for location: London (51.5072 / 0.1276)

Sorry there are no passes over London.